This is the latest recevied weather packets stored in our database for station/object EA2AFZ-W. If no packets are shown the sender has not sent any weather packets the latest 10 day(s).
| Time | Temp. | Humidity | Pressure | Rain* | Wind** | Luminosity | Snow |
|---|---|---|---|---|---|---|---|
| 1788576314 | 19.44° C | 71% | 1023 hPa | 0 mm | - | - | - |
| 1788574513 | 19.44° C | 73% | 1024 hPa | 0 mm | - | - | - |
| 1788572710 | 19.44° C | 73% | 1024 hPa | 0 mm | - | - | - |
| 1788570907 | 19.44° C | 74% | 1024 hPa | 0 mm | - | - | - |
| 1788569165 | 19.44° C | 72% | 1024 hPa | 0 mm | - | - | - |
| 1788567363 | 20° C | 72% | 1024 hPa | 0 mm | - | - | - |
| 1788565561 | 20.56° C | 72% | 1024 hPa | 0 mm | - | - | - |
| 1788563758 | 20.56° C | 71% | 1023 hPa | 0 mm | - | - | - |
| 1788561955 | 21.11° C | 69% | 1024 hPa | 0 mm | - | - | - |
| 1788560153 | 21.67° C | 68% | 1024 hPa | 0 mm | - | - | - |
| 1788558350 | 21.67° C | 68% | 1024 hPa | 0 mm | - | - | - |
| 1788556549 | 21.67° C | 68% | 1024 hPa | 0 mm | - | - | - |
| 1788554746 | 22.22° C | 67% | 1024 hPa | 0 mm | - | - | - |
| 1788552944 | 22.22° C | 67% | 1024 hPa | 0 mm | - | - | - |
| 1788551141 | 22.22° C | 68% | 1024 hPa | 0 mm | - | - | - |
| 1788549339 | 22.22° C | 69% | 1023 hPa | 0 mm | - | - | - |
| 1788547537 | 22.78° C | 70% | 1023 hPa | 0 mm | - | - | - |
| 1788545734 | 23.33° C | 70% | 1022 hPa | 0 mm | - | - | - |
| 1788543931 | 23.89° C | 67% | 1022 hPa | 0 mm | - | - | - |
| 1788542129 | 24.44° C | 65% | 1021 hPa | 0 mm | - | - | - |
| 1788540326 | 26.11° C | 62% | 1021 hPa | 0 mm | - | - | - |
| 1788538524 | 26.67° C | 61% | 1020 hPa | 0 mm | - | - | - |
| 1788536745 | 26.67° C | 62% | 1021 hPa | 0 mm | - | - | - |
| 1788534920 | 27.22° C | 66% | 1021 hPa | 0 mm | - | - | - |
| 1788533118 | 26.67° C | 64% | 1021 hPa | 0 mm | - | - | - |
* Rain latest hour (hover to see other rain measurements)
** Current wind speed in m/s (hover to see current wind gust speed)